This is the latest recevied weather packets stored in our database for station/object KJ4EWA. If no packets are shown the sender has not sent any weather packets the latest 10 day(s).
| Time | Temp. | Humidity | Pressure | Rain* | Wind** | Luminosity | Snow |
|---|---|---|---|---|---|---|---|
| 1777917273 | 26.67° C | 44% | 1019.9 hPa | 0 mm | - | 778 W/m² | - |
| 1777916971 | 26.11° C | 49% | 1020.2 hPa | 0 mm | - | 738 W/m² | - |
| 1777916668 | 25.56° C | 46% | 1020.1 hPa | 0 mm | - | 708 W/m² | - |
| 1777916365 | 25° C | 47% | 1020.3 hPa | 0 mm | - | 749 W/m² | - |
| 1777916061 | 25° C | 45% | 1020.2 hPa | 0 mm | - | 765 W/m² | - |
| 1777915759 | 25° C | 46% | 1020.2 hPa | 0 mm | - | 714 W/m² | - |
| 1777915455 | 25.56° C | 45% | 1020.4 hPa | 0 mm | - | 756 W/m² | - |
| 1777915151 | 26.11° C | 49% | 1020.4 hPa | 0 mm | - | 734 W/m² | - |
| 1777914849 | 25.56° C | 45% | 1020.8 hPa | 0 mm | - | 723 W/m² | - |
| 1777914545 | 25.56° C | 46% | 1020.7 hPa | 0 mm | - | 758 W/m² | - |
| 1777914242 | 25.56° C | 47% | 1020.7 hPa | 0 mm | - | 674 W/m² | - |
| 1777913938 | 25° C | 47% | 1020.8 hPa | 0 mm | - | 668 W/m² | - |
| 1777913635 | 25.56° C | 46% | 1020.6 hPa | 0 mm | - | 613 W/m² | - |
| 1777913332 | 25.56° C | 46% | 1020.6 hPa | 0 mm | - | 705 W/m² | - |
| 1777913029 | 25° C | 45% | 1020.6 hPa | 0 mm | - | 758 W/m² | - |
| 1777912724 | 26.11° C | 51% | 1020.8 hPa | 0 mm | - | 695 W/m² | - |
| 1777912421 | 25.56° C | 47% | 1021 hPa | 0 mm | - | 695 W/m² | - |
| 1777912117 | 25.56° C | 45% | 1020.8 hPa | 0 mm | - | 702 W/m² | - |
| 1777911813 | 25.56° C | 48% | 1021 hPa | 0 mm | - | 714 W/m² | - |
| 1777911510 | 25.56° C | 47% | 1021.1 hPa | 0 mm | - | 723 W/m² | - |
| 1777911207 | 26.11° C | 54% | 1021 hPa | 0 mm | - | 740 W/m² | - |
| 1777910904 | 26.11° C | 49% | 1021 hPa | 0 mm | - | 741 W/m² | - |
| 1777910601 | 25.56° C | 50% | 1021.1 hPa | 0 mm | - | 552 W/m² | - |
| 1777910298 | 25.56° C | 49% | 1021.4 hPa | 0 mm | - | 502 W/m² | - |
| 1777909994 | 25° C | 49% | 1021.1 hPa | 0 mm | - | 683 W/m² | - |
* Rain latest hour (hover to see other rain measurements)
** Current wind speed in m/s (hover to see current wind gust speed)